Wind_Speed
91 90 90 89 88 87 87 87 87 86 85 83 83 83 83 83 83 83 82 83 85 86 88 88 88 89 89 91 92 94 96 99 97 98 99 102 104 105 108 111 114 114 113
95 93 91 90 90 88 88 88 88 88 89 89 87 87 87 86 87 87 86 87 87 88 90 91 92 93 94 96 99 100 102 104 105 105 107 109 111 111 111 113 117 117 120
99 98 96 94 93 92 91 90 89 89 88 88 89 88 89 90 91 91 91 91 91 91 93 95 97 99 100 102 104 105 105 108 111 113 112 112 113 115 117 119 119 120 119
106 104 103 101 99 98 98 97 95 94 94 94 93 94 94 95 96 96 97 97 98 99 100 101 102 103 104 106 108 111 111 113 116 119 119 117 120 122 118 120 117 116 118
112 109 106 105 105 104 104 103 102 102 102 102 102 102 102 101 102 103 104 105 105 106 105 107 108 108 110 112 114 117 120 120 121 121 123 124 125 121 120 116 116 113 109
119 116 113 111 110 109 109 108 108 108 107 107 107 108 108 107 108 109 110 109 110 109 110 111 113 116 119 119 121 122 124 125 126 126 123 119 114 116 112 106 108 104 103
123 122 120 119 117 116 115 114 113 113 112 112 112 112 113 112 112 113 112 112 115 116 117 118 118 122 123 121 124 126 126 126 120 120 118 112 110 113 110 106 104 102 100
126 125 124 123 122 122 121 121 119 119 118 117 117 117 117 117 118 119 120 120 119 119 120 121 122 125 127 130 130 127 120 124 118 112 109 111 108 107 106 105 102 99 99
127 130 130 128 126 125 124 125 125 124 123 121 120 121 120 121 122 123 123 123 125 125 126 127 128 128 123 123 122 115 116 113 111 110 110 109 107 106 105 103 100 97 94
116 122 129 131 130 128 127 128 129 129 128 127 127 129 129 129 129 129 129 129 128 130 125 123 118 111 110 109 114 110 107 108 109 110 108 107 105 102 101 97 95 94 92
107 107 113 120 127 130 130 129 130 130 126 125 123 124 127 132 131 131 127 124 120 119 116 114 116 112 112 110 109 108 106 106 106 105 104 102 101 98 96 95 93 92 90
106 107 105 108 112 116 119 120 119 117 117 119 120 119 121 122 124 124 126 122 116 114 114 112 109 109 108 107 106 104 103 102 102 101 101 98 97 98 95 94 91 87 86
100 101 101 101 102 104 105 106 106 107 107 108 110 111 112 112 112 111 108 107 107 107 106 105 105 103 103 103 103 102 102 102 101 100 100 98 96 93 92 88 85 85 79
96 98 98 97 99 99 97 97 98 98 98 99 100 101 102 102 102 102 103 103 103 103 103 102 103 101 101 102 103 104 102 103 101 102 100 94 89 88 86 84 82 81 79
95 96 97 97 97 97 97 96 96 96 97 97 98 99 100 100 100 100 100 100 102 103 104 104 104 103 103 103 104 103 102 101 99 95 91 87 84 83 81 80 81 81 77
93 95 95 96 97 97 97 98 98 99 100 101 101 102 102 101 101 101 101 102 103 104 104 105 104 105 104 104 104 103 101 98 91 87 83 82 80 79 80 80 78 79 80
92 94 95 95 96 97 98 99 100 102 103 103 102 103 102 102 102 103 103 103 104 105 107 107 105 105 104 104 103 100 94 87 79 79 80 81 82 84 81 80 82 83 83
91 92 94 95 95 96 97 97 99 100 101 102 102 104 104 104 104 103 105 105 104 105 105 105 104 103 102 99 97 93 84 80 81 81 82 84 84 83 82 83 85 84 85
86 89 91 93 96 97 98 98 100 101 102 103 103 104 106 104 104 105 105 104 104 105 104 103 99 99 97 95 92 84 82 83 83 85 85 85 86 89 90 90 88 88 90
80 83 85 89 93 97 99 100 101 102 102 105 106 105 107 107 106 106 105 102 100 98 98 98 97 96 95 87 83 83 85 87 89 90 90 90 90 91 93 91 87 89 88
70 73 76 80 85 90 94 98 100 102 103 105 108 106 105 104 104 104 99 96 97 97 96 94 92 89 87 86 87 88 91 92 95 94 95 96 97 98 94 91 90 89 92
66 68 69 72 76 79 82 85 87 89 90 92 93 93 93 93 92 89 91 92 90 91 91 91 89 89 89 91 94 96 97 99 100 100 100 100 98 98 97 95 95 97 97
74 71 71 72 73 75 76 77 77 79 80 82 83 85 86 87 88 87 89 90 90 90 90 91 92 94 97 99 100 102 104 104 104 105 106 104 102 102 103 102 101 105 109
82 80 78 76 76 77 77 78 78 78 79 81 83 83 84 86 88 88 90 91 92 93 93 96 99 101 103 104 106 107 108 109 110 110 111 111 111 109 109 109 110 115 113
87 86 85 83 82 82 82 82 83 82 83 85 86 87 88 88 91 92 94 95 97 99 100 102 105 107 108 110 110 112 113 113 115 118 117 116 117 115 115 116 118 119 120
91 93 92 91 89 89 89 89 90 90 90 91 93 95 96 98 99 99 101 102 104 105 107 109 112 114 115 117 118 118 119 121 120 121 122 122 122 122 123 124 126 124 127
Wind_Direction
240 243 247 247 249 251 252 254 255 256 258 259 261 263 265 266 268 269 270 272 275 276 279 280 282 284 286 287 289 290 292 294 295 296 297 297 299 301 302 302 302 303 304
241 242 244 246 249 250 251 253 255 256 257 258 260 262 264 265 267 269 270 271 273 275 277 279 281 282 285 287 289 291 292 294 295 296 297 298 299 301 301 301 301 302 305
241 243 244 245 246 248 250 252 254 256 257 259 260 262 264 266 268 269 271 272 273 275 277 279 281 283 285 287 288 290 291 293 294 296 297 299 299 300 301 302 301 303 303
243 244 246 247 247 248 250 252 254 255 256 257 260 262 263 265 267 269 271 273 274 275 277 278 280 282 284 285 287 289 292 293 294 296 297 299 299 301 300 300 301 301 301
244 244 246 248 248 249 250 252 254 255 257 259 261 263 264 266 268 271 273 275 276 278 279 280 282 284 285 287 288 290 292 294 295 295 296 297 299 299 299 298 297 297 298
245 246 246 247 250 252 254 255 256 257 259 260 262 265 267 269 270 272 274 276 277 278 280 281 283 284 286 288 289 292 293 293 294 295 296 299 296 295 297 296 297 299 299
247 248 249 249 250 252 254 256 258 260 261 263 265 267 268 270 271 272 274 276 277 279 281 283 283 284 288 289 288 289 290 292 293 294 295 295 295 294 297 297 298 299 299
248 249 251 252 253 254 256 257 259 261 263 264 266 268 270 271 272 274 275 277 279 280 281 282 283 284 285 287 288 292 289 290 292 290 291 293 293 293 295 296 297 298 298
251 251 251 252 254 255 257 258 261 262 263 265 267 268 269 271 271 272 274 276 277 278 280 281 282 286 286 286 285 286 288 287 289 290 291 293 294 295 295 295 295 295 296
252 253 253 254 254 256 257 259 260 262 263 265 266 267 268 269 271 273 274 276 278 280 284 284 284 283 282 282 285 286 287 288 290 290 291 292 294 293 293 294 295 296 295
252 254 255 256 257 258 259 261 262 263 266 267 268 267 268 270 271 274 276 277 278 280 282 282 282 283 284 285 286 287 287 287 288 288 289 291 293 293 293 294 294 293 295
255 255 255 257 257 259 261 262 263 265 266 266 268 268 269 270 272 273 274 277 278 279 280 279 279 280 281 282 284 284 285 286 288 290 291 292 292 293 293 293 293 293 292
253 254 255 255 257 259 260 262 262 263 264 265 266 267 268 269 270 272 273 274 275 275 276 277 278 279 281 283 284 285 285 288 289 290 291 293 293 291 291 292 292 292 291
253 254 254 255 256 257 258 260 261 262 263 263 265 266 267 268 269 271 272 273 274 276 277 278 279 280 280 281 283 285 286 287 289 289 292 291 290 290 291 292 292 291 289
252 253 253 254 255 255 256 258 259 261 263 264 265 266 268 269 270 271 272 273 274 275 276 277 278 280 281 282 283 284 286 287 288 290 289 290 291 291 291 292 291 291 290
251 252 253 253 254 255 256 257 258 259 260 262 264 266 267 269 270 271 272 273 274 276 277 278 279 280 282 282 284 285 287 289 290 288 287 289 290 291 293 292 291 290 288
250 251 252 252 253 253 255 257 259 260 261 263 265 267 269 270 271 272 273 274 274 276 277 278 279 280 281 282 284 287 289 288 287 287 289 290 291 292 293 292 289 288 288
252 252 253 254 255 257 258 258 260 262 263 264 264 266 267 268 269 270 272 274 276 277 278 279 280 281 282 284 285 286 287 286 286 287 290 291 290 289 289 290 289 285 286
255 254 254 254 255 256 257 258 259 260 261 262 264 265 268 269 269 271 272 273 274 275 276 276 277 279 280 281 283 284 283 284 284 287 289 288 286 287 289 290 288 286 286
257 257 255 254 255 256 258 259 260 261 262 264 264 265 266 269 271 271 271 272 272 272 272 274 276 277 280 283 280 279 279 282 283 285 285 284 285 286 289 288 287 288 289
257 256 256 256 256 256 257 258 259 260 261 261 264 265 266 267 267 268 269 269 269 270 273 276 279 279 277 277 277 279 279 281 283 283 284 286 287 289 291 289 289 289 291
258 257 257 256 256 257 257 258 259 260 261 262 263 264 265 266 267 268 268 268 270 271 272 273 275 275 275 275 276 277 279 282 283 284 286 288 289 289 289 288 287 289 290
256 256 256 256 257 257 258 258 258 259 259 260 261 262 263 264 264 265 266 268 268 269 270 272 274 274 275 277 278 280 281 283 284 285 285 286 286 285 286 287 287 287 289
253 253 254 255 256 257 257 258 258 258 259 259 260 260 261 262 263 263 263 265 267 268 269 271 272 273 275 277 279 280 281 282 282 282 284 285 287 284 283 284 285 286 288
249 251 252 253 254 255 256 257 258 258 259 260 261 262 263 263 263 264 264 265 265 267 268 270 272 274 275 276 277 277 279 280 281 281 282 285 285 282 283 283 285 286 287
246 248 250 251 252 254 255 256 257 258 258 258 259 260 261 262 263 264 265 265 266 268 269 270 271 272 273 275 276 277 278 278 280 281 281 281 282 283 283 282 284 286 288
Height
10628 10633 10638 10642 10646 10650 10654 10654 10656 10658 10659 10661 10662 10663 10662 10663 10661 10661 10661 10659 10654 10650 10645 10642 10639 10634 10631 10626 10622 10618 10614 10607 10607 10603 10596 10589 10582 10576 10565 10554 10542 10531 10521
10609 10613 10617 10622 10625 10629 10632 10633 10636 10638 10639 10640 10642 10642 10641 10642 10641 10640 10641 10640 10638 10635 10629 10625 10621 10615 10614 10609 10603 10598 10594 10586 10582 10581 10575 10567 10560 10556 10546 10535 10522 10512 10502
10588 10592 10595 10599 10603 10606 10608 10610 10613 10616 10617 10619 10620 10621 10620 10619 10619 10619 10619 10619 10617 10616 10612 10608 10604 10599 10595 10590 10585 10581 10574 10567 10561 10555 10550 10546 10539 10531 10522 10512 10499 10489 10480
10563 10568 10571 10575 10580 10584 10586 10588 10591 10594 10594 10595 10598 10599 10598 10596 10596 10596 10596 10595 10595 10593 10592 10589 10585 10581 10577 10571 10565 10558 10553 10547 10539 10532 10526 10521 10514 10509 10499 10488 10479 10467 10457
10534 10542 10546 10551 10555 10558 10561 10563 10566 10569 10571 10573 10575 10576 10576 10576 10576 10574 10574 10573 10572 10569 10567 10564 10561 10558 10553 10548 10542 10537 10529 10523 10514 10507 10500 10495 10489 10483 10475 10466 10456 10445 10436
10504 10511 10520 10527 10531 10534 10537 10539 10542 10545 10548 10549 10552 10553 10554 10554 10553 10552 10550 10549 10547 10545 10541 10537 10535 10529 10525 10521 10516 10510 10503 10496 10489 10482 10477 10470 10465 10456 10449 10440 10430 10424 10416
10480 10485 10492 10500 10505 10508 10512 10516 10519 10522 10524 10525 10527 10529 10528 10527 10526 10525 10524 10523 10520 10519 10516 10512 10509 10504 10498 10494 10489 10484 10477 10471 10463 10456 10450 10444 10438 10430 10426 10417 10408 10402 10393
10458 10461 10465 10473 10480 10484 10487 10491 10495 10497 10498 10500 10501 10501 10502 10501 10500 10497 10495 10494 10493 10492 10489 10485 10482 10478 10473 10466 10461 10456 10450 10443 10437 10430 10424 10419 10413 10406 10400 10393 10386 10379 10372
10430 10437 10439 10443 10451 10457 10462 10464 10468 10470 10472 10474 10475 10475 10474 10474 10472 10470 10468 10468 10466 10465 10462 10456 10453 10451 10444 10440 10434 10428 10423 10417 10410 10405 10399 10393 10388 10382 10376 10371 10364 10357 10350
10401 10407 10412 10414 10420 10428 10434 10437 10440 10443 10446 10447 10446 10444 10443 10442 10442 10442 10439 10438 10437 10436 10433 10429 10423 10418 10416 10410 10407 10403 10396 10390 10384 10380 10375 10369 10364 10358 10352 10346 10339 10333 10327
10373 10380 10383 10387 10391 10396 10404 10408 10410 10414 10416 10416 10417 10414 10411 10414 10415 10414 10412 10409 10408 10406 10403 10400 10396 10393 10388 10382 10379 10376 10372 10366 10360 10357 10352 10348 10341 10335 10328 10321 10316 10309 10304
10343 10352 10356 10359 10364 10366 10370 10377 10380 10381 10383 10384 10386 10386 10386 10386 10385 10385 10385 10383 10380 10379 10377 10373 10370 10367 10363 10358 10355 10351 10345 10340 10336 10331 10325 10322 10317 10310 10304 10298 10292 10287 10281
10315 10321 10328 10332 10335 10339 10342 10344 10349 10352 10354 10355 10356 10357 10357 10357 10358 10358 10356 10354 10353 10351 10348 10346 10344 10341 10336 10332 10327 10324 10320 10315 10310 10306 10301 10296 10291 10285 10280 10275 10269 10264 10260
10288 10294 10301 10306 10309 10313 10316 10319 10320 10321 10324 10326 10328 10328 10329 10330 10330 10330 10330 10327 10325 10322 10319 10317 10315 10313 10310 10306 10301 10297 10294 10289 10285 10281 10276 10272 10267 10261 10256 10252 10247 10242 10237
10262 10267 10273 10278 10283 10287 10290 10294 10296 10296 10296 10297 10299 10300 10301 10302 10302 10301 10301 10300 10298 10295 10291 10289 10287 10286 10282 10279 10275 10271 10268 10265 10260 10256 10251 10247 10243 10238 10233 10228 10224 10219 10216
10235 10239 10245 10250 10254 10259 10263 10268 10270 10271 10271 10273 10275 10274 10275 10275 10275 10275 10274 10273 10271 10267 10263 10261 10259 10256 10254 10250 10246 10244 10241 10238 10235 10231 10227 10223 10218 10214 10210 10206 10201 10198 10194
10208 10211 10215 10221 10226 10230 10236 10239 10241 10243 10244 10246 10248 10247 10248 10248 10247 10246 10246 10244 10241 10239 10236 10232 10230 10227 10225 10222 10218 10216 10215 10212 10209 10207 10203 10199 10195 10190 10186 10182 10178 10175 10171
10179 10184 10188 10193 10198 10202 10208 10212 10214 10215 10216 10219 10219 10218 10217 10219 10219 10220 10218 10216 10214 10209 10205 10203 10201 10198 10195 10193 10192 10191 10190 10187 10185 10182 10179 10175 10172 10168 10163 10160 10156 10152 10148
10150 10156 10161 10165 10168 10171 10176 10180 10183 10185 10186 10187 10189 10189 10187 10189 10189 10188 10188 10187 10185 10182 10178 10175 10173 10171 10170 10169 10169 10168 10166 10164 10161 10158 10155 10151 10148 10144 10140 10137 10133 10129 10124
10124 10128 10133 10136 10139 10141 10145 10149 10152 10155 10158 10158 10158 10159 10157 10158 10158 10157 10156 10157 10154 10151 10148 10147 10147 10145 10145 10146 10145 10143 10141 10139 10137 10134 10130 10127 10123 10119 10115 10111 10107 10103 10099
10099 10102 10104 10108 10110 10113 10116 10118 10122 10124 10127 10127 10124 10127 10128 10128 10127 10127 10127 10126 10124 10123 10122 10121 10122 10122 10121 10119 10118 10116 10114 10113 10111 10107 10104 10100 10095 10090 10086 10082 10079 10075 10071
10076 10078 10081 10082 10084 10086 10089 10091 10093 10095 10097 10099 10099 10100 10100 10100 10100 10101 10100 10100 10100 10098 10097 10095 10095 10094 10093 10091 10090 10089 10087 10084 10081 10077 10073 10068 10064 10060 10057 10054 10051 10048 10044
10052 10055 10057 10059 10061 10062 10064 10066 10068 10069 10070 10071 10072 10072 10072 10072 10073 10073 10073 10073 10073 10073 10071 10070 10068 10066 10064 10062 10060 10058 10054 10051 10048 10044 10041 10038 10035 10032 10030 10026 10022 10018 10016
10027 10030 10033 10036 10038 10039 10040 10041 10043 10044 10045 10045 10046 10046 10046 10047 10047 10047 10047 10046 10045 10045 10044 10042 10040 10037 10034 10032 10029 10026 10023 10020 10016 10013 10010 10007 10004 10001 9998 9995 9992 9989 9984
10001 10005 10008 10011 10013 10014 10015 10017 10018 10019 10019 10019 10019 10019 10019 10020 10020 10020 10019 10019 10017 10016 10014 10012 10009 10006 10003 10000 9996 9994 9992 9988 9984 9980 9978 9977 9973 9969 9965 9962 9959 9955 9952
9974 9978 9981 9983 9985 9987 9988 9989 9989 9990 9991 9991 9991 9990 9990 9990 9990 9990 9990 9989 9987 9985 9983 9979 9976 9973 9970 9966 9964 9960 9957 9953 9951 9948 9946 9944 9942 9937 9932 9930 9925 9921 9918